Location: Oberwangen
(47.4286°N, 8.9679°E)
Time: 08:25:04
(UTC+00:00)

ATLAS 3B R/B - Pass Details

Date: 20 June 2021
Orbit: 1003 x 1191 km, 63.8° (Epoch: 21 July)

Event Time Altitude Azimuth Distance (km) Brightness Sun altitude
Rises 19:58:25 0° 188° (S) 3,715 5.2 -5.2°
Reaches altitude 10° 20:01:09 10° 180° (S) 2,775 4.5 -5.5°
Maximum altitude 20:07:01 37° 116° (ESE) 1,531 3.1 -6.2°
Drops below altitude 10° 20:13:05 10° 51° (NE) 2,864 4.9 -6.9°
Sets 20:15:56 0° 44° (NE) 3,848 5.7 -7.3°
